Location: Central Falls
(41.8900°N, 71.3929°W)
Time: 20:44:18
(UTC+00:00)

Transit 2A Rocket - Visible Passes

Search period start: 06 December 2023 00:00
Search period end: 16 December 2023 00:00
Orbit: 593 x 903 km, 66.7° (Epoch: 06 December)

Date Brightness Start Highest point End Pass type
(mag) Time Alt. Az. Time Alt. Az. Time Alt. Az.
06 Dec 6.2 09:41:32 21° N 09:43:25 29° NE 09:47:24 10° ESE visible
06 Dec 5.6 11:21:57 10° NW 11:25:48 30° WSW 11:29:51 10° S visible
07 Dec 6.9 08:59:29 18° NE 08:59:31 18° NE 09:02:33 10° E visible
07 Dec 4.7 10:39:21 20° NW 10:42:17 58° WSW 10:46:51 10° SSE visible
08 Dec 4.7 09:57:21 44° NNW 09:58:40 73° ENE 10:03:18 10° SE visible
09 Dec 5.9 09:15:26 38° ENE 09:15:26 38° ENE 09:19:16 10° SE visible
09 Dec 5.9 10:55:17 17° WNW 10:57:11 22° WSW 11:00:45 10° SSW visible
10 Dec 7.4 08:33:34 15° E 08:33:34 15° E 08:34:44 10° ESE visible
10 Dec 5.0 10:13:26 41° WSW 10:13:41 41° WSW 10:18:06 10° S visible
11 Dec 5.5 09:31:38 42° SSE 09:31:38 42° SSE 09:34:48 10° SSE visible
11 Dec 6.7 23:59:57 10° SSW 00:01:26 20° SSW 00:01:26 20° SSW visible
12 Dec 7.1 08:49:53 17° SE 08:49:53 17° SE 08:51:00 10° SE visible
12 Dec 6.5 10:29:46 15° SW 10:29:46 15° SW 10:31:21 10° SW visible
12 Dec 5.8 23:16:47 10° S 23:19:41 29° SSE 23:19:41 29° SSE visible
13 Dec 6.8 09:48:03 16° SSW 09:48:03 16° SSW 09:49:10 10° S visible
13 Dec 6.1 22:34:19 10° SSE 22:37:38 19° ESE 22:37:53 19° ESE visible
14 Dec 6.5 00:15:19 10° SW 00:17:45 27° WSW 00:17:45 27° WSW visible
14 Dec 4.6 23:31:23 10° SSW 23:35:53 81° WSW 23:35:53 81° WSW visible
15 Dec 4.8 22:47:57 10° S 22:52:30 50° ESE 22:53:58 35° ENE visible
